Weather in Begoulevo

Russia / Yaroslavl Oblast     57°32′50″N   39°49′28″E
temp.,
°C
wind,
m/s
gust,
m/s
humid.,
%
clouds,
%
prec.,
mm/h
press.,
hPa
HPBL,
m
22 april, thu
thu2200:00+3ssw4992100 0.0 1010366
03:00+3s4992100 0.0 1011327
06:00+4s5109198 0.0 1012297
09:00+7s71081100 0.0 1012661
12:00+9ssw71068100 0.4 10131293
15:00+11sw796599 1.2 10131356
18:00+11ssw58715 1.0 1014719
21:00+7s38887 1.0 1015143
23 april, fri
fri2300:00+6s4119162 0.0 1015232
03:00+5sse512925 0.0 1015245
06:00+6sse5139227 0.0 1014333
09:00+11s7127556 0.0 1014643
12:00+15s8135669 0.1 10141861
15:00+17s81247100 0.4 10122660
18:00+14s81355100 0.3 1012999
21:00+9n118667 1.0 101353
24 april, sat
sat2400:00+8sse411825 0.1 1011354
03:00+7se5138647 0.1 1009379
06:00+8se71685100 0.0 1007536
09:00+12se81469100 0.1 10051242
12:00+11s71279100 1.1 10041394
15:00+3w41097100 2.6 1006479
18:00+3wnw5995100 2.4 1006583
21:00+4wnw3791100 2.6 1006562
25 april, sun
sun2500:00+3w3794100 0.0 1005284
03:00+2w41090100 0.0 1005367
06:00+2w4886100 0.0 1006292
09:00+5w686485 0.0 10061020
12:00+7wsw786092 0.4 10061666
15:00+8wsw5848100 0.6 10072090
18:00+6wsw576086 0.1 10081248
21:00+3sw410765 0.1 1009294
26 april, mon
mon2600:00+1sw511865 0.0 1009376
03:000sw510895 0.0 1010320
06:000ssw49875 0.0 1010337
09:00+4sw58655 0.0 1010929
12:00+7sw785598 0.4 10101742
15:00+6wsw685687 0.7 10101724
18:00+6w36555 0.0 10091231
21:00+3se117119 0.0 100810